Zurück zum Katalog

STARLINK-37849

AktivKommunikationSSO
NORAD 69499·PAYLOAD·🇺🇸 United States

Gestartet Jun 11, 2026 von Vandenberg Space Force Base

Loading…

Nächste Überflüge (nächste 24 Stunden)

TLE

AktuellSource: CelesTrak SupGP

Epoche: Sep 15, 2026, 03:32 UTC

1 69499C 26131X   26258.14770833 -.00051558  00000+0 -16005-2 0  2583
2 69499  97.2830 279.1678 0001174  89.2118 220.7122 15.33464126    12

Verfolge STARLINK-37849 in Echtzeit mit AllMySat

Download on the App Store